Regional Weather Roundup
Issued by NWS Midland/Odessa, TX

Skip options and go directly to product.
Home | Oldest Version | Previous Version | Current Version | All | Graphics & Text | Save Text | Print | Product List | Glossary On

Skip product version selection by date and time.   
727
ASUS44 KMAF 221210
RWRMAF
MIDLAND AREA WEATHER ROUNDUP
NATIONAL WEATHER SERVICE MIDLAND TX
700 AM CDT MON SEP 22 2014

...IN SOUTHWEST TEXAS AND SOUTHEAST NEW MEXICO...

CITY           SKY/WX    TMP DP  RH WIND       PRES   REMARKS
ALPINE         CLOUDY    67  60  79 SE6       30.30R
ANDREWS        CLOUDY    67  66  98 E9        30.24R
ARTESIA        NOT AVBL
BIG SPRING     CLOUDY    72  69  91 NE12      30.23S
CARLSBAD       CLOUDY    69  50  51 E7        30.20S HAZE
DRYDEN           N/A     77  70  79 E9        30.14S
FORT STOCKTON  LGT RAIN  68  68 100 E5        30.20S
GUAD PASS      LGT RAIN  62  50  65 E28         N/A  VSB 1/4
HOBBS          CLOUDY    66  66 100 NE9       30.26  FOG
MARFA          CLOUDY    64  61  88 E3        30.28S
MIDLAND AIRPK  CLOUDY    70  70  99 E7        30.22R
MIDLAND INTL   CLOUDY    70  68  93 E7        30.21R
ODESSA         CLOUDY    69  67  93 E7        30.22R
PECOS          DRIZZLE   68  66  94 E6        30.18S
PRESIDIO       CLOUDY    75  65  70 NE14G20   30.14R
SEMINOLE       CLOUDY    66  65  97 CALM      30.26R
SNYDER         CLOUDY    67  66  96 NE8       30.23R
WINK           LGT RAIN  70  68  93 E3        30.19S
$$
...OTHER STATIONS IN TEXAS...

CITY           SKY/WX    TMP DP  RH WIND       PRES   REMARKS
ABILENE        PTCLDY    70  65  84 E10       30.20R
AMARILLO       MOCLDY    60  54  80 E8        30.31S
AUSTIN         PTCLDY    66  65  96 CALM      30.10R
BROWNSVILLE    MOCLDY    77  75  93 NE3       29.98R
CORPUS CHRISTI PTCLDY    74  72  93 N8        30.03R
DALLAS FTW     MOCLDY    74  56  53 NE10      30.16R
DEL RIO        PTCLDY    75  69  81 E5        30.10R
EL PASO        CLOUDY    69  65  86 NW15      30.18R THUNDER
HOUSTON INT    PTCLDY    75  70  84 N5        30.06R
LUBBOCK        CLOUDY    65  63  93 E13       30.27R FOG
SAN ANGELO     CLOUDY    70  67  90 CALM      30.18R
SAN ANTONIO    CLEAR     69  64  84 NW5       30.11R
WACO           CLEAR     73  68  84 NE9       30.13R
WICHITA FALLS  NOT AVBL
$$
...OTHER LOCATIONS IN NEW MEXICO...

CITY           SKY/WX    TMP DP  RH WIND       PRES   REMARKS
ALAMAGORDO     CLOUDY    66  63  88 CALM      30.22R
ALBUQUERQUE    MOCLDY    67  55  65 SE8       30.29S
CANNON AFB     CLOUDY    63  57  82 E10       30.32S
CLOVIS           N/A     61  57  88 E9        30.34S
HOLLOMAN AFB   MOCLDY    67  64  89 NE6       30.20R
ROSWELL        LGT RAIN  66  64  93 NE7       30.24S
RUIDOSO        FOG       57  57 100 SE7       30.41S VSB 3/4
SANTA FE       CLOUDY    62  54  74 SE10      30.36S
TRUTH OR CONSE CLOUDY    67  62  84 NW5       30.25R
TUCUMCARI      CLOUDY    64  60  87 E7        30.30R
$$

USA.gov is the U.S. government's official web portal to all federal, state and local government web resources and services.